| time (UTC) | temp C | wind direction | speed KPH | gust KPH | rain 1hr cm | rain 24hr cm | rain mn cm | humidity % | barometer mb |
| 20260906094532 | 19 | 236 | 6.4 | 16.1 | 0.00 | 0.15 | 0.00 | 69 | 1019.2 |
| 20260906093017 | 19 | 256 | 8.0 | 16.1 | 0.00 | 0.15 | 0.00 | 71 | 1019.4 |
| 20260906091507 | 18 | 281 | 6.4 | 16.1 | 0.00 | 0.15 | 0.00 | 70 | 1019.5 |
| 20260906090013 | 18 | 238 | 6.4 | 14.5 | 0.00 | 0.15 | 0.00 | 72 | 1019.8 |
| 20260906084508 | 18 | 240 | 8.0 | 14.5 | 0.00 | 0.15 | 0.00 | 70 | 1019.8 |
| 20260906083005 | 18 | 269 | 9.7 | 14.5 | 0.00 | 0.15 | 0.00 | 69 | 1019.8 |
| 20260906081511 | 18 | 259 | 8.0 | 11.3 | 0.00 | 0.15 | 0.00 | 67 | 1019.7 |
| 20260906080009 | 18 | 269 | 4.8 | 9.7 | 0.00 | 0.15 | 0.00 | 64 | 1019.7 |
| 20260906074501 | 18 | 133 | 0.0 | 4.8 | 0.00 | 0.15 | 0.00 | 65 | 1019.9 |
| 20260906073058 | 18 | 150 | 0.0 | 4.8 | 0.00 | 0.15 | 0.00 | 70 | 1019.8 |
| 20260906071554 | 16 | 89 | 1.6 | 6.4 | 0.00 | 0.15 | 0.00 | 72 | 1019.9 |
| 20260906070051 | 16 | 68 | 1.6 | 6.4 | 0.00 | 0.15 | 0.00 | 71 | 1019.7 |
| 20260906064547 | 15 | 108 | 0.0 | 6.4 | 0.00 | 0.15 | 0.00 | 77 | 1019.6 |
| 20260906063043 | 14 | 84 | 1.6 | 6.4 | 0.00 | 0.15 | 0.00 | 78 | 1019.8 |
| 20260906061542 | 13 | 77 | 3.2 | 6.4 | 0.00 | 0.15 | 0.00 | 80 | 1019.8 |
| 20260906060037 | 12 | 94 | 0.0 | 4.8 | 0.00 | 0.15 | 0.00 | 83 | 1019.7 |
| 20260906054541 | 12 | 84 | 1.6 | 4.8 | 0.00 | 0.15 | 0.00 | 85 | 1019.6 |
| 20260906053039 | 11 | 102 | 1.6 | 0.0 | 0.00 | 0.15 | 0.00 | 87 | 1019.6 |
| 20260906051541 | -17 | 0.0 | 0.0 | 0.00 | 0.15 | 0.00 | 1019.7 | ||
| 20260906050026 | -17 | 0.0 | 0.0 | 0.00 | 0.15 | 0.00 | 1019.7 | ||
| 20260906044522 | -17 | 0.0 | 0.0 | 0.00 | 0.15 | 0.00 | 1019.6 | ||
| 20260906043017 | -17 | 0.0 | 0.0 | 0.00 | 0.15 | 0.00 | 1019.5 | ||
| 20260906041513 | -17 | 0.0 | 0.0 | 0.00 | 0.15 | 0.00 | 1019.4 | ||
| 20260906040018 | -17 | 0.0 | 0.0 | 0.00 | 0.15 | 0.00 | 1019.3 | ||
| 20260906034507 | -17 | 0.0 | 0.0 | 0.00 | 0.15 | 0.00 | 1019.2 | ||
| 20260906033100 | -17 | 0.0 | 0.0 | 0.00 | 0.15 | 0.00 | 1019.1 | ||
| 20260906031557 | 10 | 96 | 1.6 | 9.7 | 0.00 | 0.15 | 0.00 | 90 | 1019.1 |
| 20260906024559 | 10 | 63 | 1.6 | 9.7 | 0.00 | 0.15 | 0.00 | 92 | 1019.1 |
| 20260906023053 | 10 | 65 | 1.6 | 9.7 | 0.00 | 0.15 | 0.00 | 93 | 1018.9 |
| 20260906021551 | 11 | 96 | 1.6 | 9.7 | 0.00 | 0.15 | 0.00 | 91 | 1018.8 |
| 20260906020049 | 10 | 70 | 3.2 | 9.7 | 0.00 | 0.15 | 0.00 | 91 | 1018.6 |
| 20260906014622 | 11 | 78 | 1.6 | 9.7 | 0.00 | 0.15 | 0.00 | 90 | 1018.5 |
| 20260906013049 | 11 | 54 | 3.2 | 9.7 | 0.00 | 0.15 | 0.00 | 91 | 1018.7 |
| 20260906011546 | 11 | 115 | 1.6 | 9.7 | 0.00 | 0.15 | 0.00 | 90 | 1018.5 |
| 20260906010049 | 11 | 77 | 1.6 | 9.7 | 0.00 | 0.15 | 0.00 | 91 | 1018.4 |
| 20260906004541 | 11 | 77 | 1.6 | 9.7 | 0.00 | 0.15 | 0.00 | 91 | 1018.2 |
| 20260906003041 | 11 | 82 | 0.0 | 9.7 | 0.00 | 0.15 | 0.00 | 91 | 1018.3 |
| 20260906001541 | 11 | 73 | 1.6 | 9.7 | 0.00 | 0.15 | 0.00 | 92 | 1018.3 |
| 20260906000041 | 11 | 79 | 0.0 | 9.7 | 0.00 | 0.15 | 0.00 | 92 | 1018.1 |
| 20260905234537 | 11 | 71 | 1.6 | 9.7 | 0.00 | 0.15 | 0.00 | 91 | 1017.9 |
| 20260905233034 | 12 | 96 | 1.6 | 9.7 | 0.00 | 0.15 | 0.00 | 92 | 1017.8 |
| 20260905231532 | 12 | 69 | 1.6 | 9.7 | 0.00 | 0.15 | 0.00 | 92 | 1017.7 |
| 20260905230029 | 12 | 70 | 3.2 | 9.7 | 0.00 | 0.15 | 0.00 | 91 | 1017.9 |
| 20260905224527 | 13 | 60 | 1.6 | 9.7 | 0.00 | 0.15 | 0.00 | 91 | 1017.7 |
| 20260905223026 | 13 | 98 | 0.0 | 9.7 | 0.00 | 0.15 | 0.00 | 90 | 1017.7 |
| 20260905221522 | 13 | 51 | 1.6 | 9.7 | 0.00 | 0.15 | 0.00 | 91 | 1017.6 |
| 20260905220020 | 12 | 79 | 1.6 | 9.7 | 0.00 | 0.15 | 0.15 | 91 | 1017.5 |
| 20260905214522 | 13 | 65 | 1.6 | 9.7 | 0.00 | 0.15 | 0.15 | 91 | 1017.3 |
| 20260905213015 | 13 | 75 | 3.2 | 9.7 | 0.00 | 0.15 | 0.15 | 90 | 1017.1 |
| 20260905211516 | 13 | 84 | 1.6 | 9.7 | 0.00 | 0.15 | 0.15 | 89 | 1017.0 |
| 20260905210016 | 13 | 49 | 0.0 | 9.7 | 0.00 | 0.15 | 0.15 | 92 | 1016.9 |
| 20260905204518 | 13 | 65 | 3.2 | 9.7 | 0.00 | 0.15 | 0.15 | 91 | 1016.9 |
| 20260905203009 | 14 | 65 | 1.6 | 9.7 | 0.00 | 0.15 | 0.15 | 89 | 1016.7 |
| 20260905201508 | 13 | 40 | 4.8 | 9.7 | 0.00 | 0.15 | 0.15 | 91 | 1016.6 |
| 20260905200007 | 14 | 60 | 3.2 | 9.7 | 0.00 | 0.15 | 0.15 | 90 | 1016.5 |
| 20260905194505 | 14 | 46 | 1.6 | 9.7 | 0.00 | 0.15 | 0.15 | 91 | 1016.3 |
| 20260905193002 | 15 | 66 | 3.2 | 9.7 | 0.00 | 0.15 | 0.15 | 90 | 1016.2 |
| 20260905191602 | 15 | 95 | 6.4 | 9.7 | 0.00 | 0.15 | 0.15 | 91 | 1015.9 |
| 20260905190100 | 15 | 73 | 1.6 | 8.0 | 0.00 | 0.15 | 0.15 | 90 | 1015.6 |
| 20260905184555 | 15 | 31 | 1.6 | 8.0 | 0.00 | 0.15 | 0.15 | 89 | 1015.3 |
| 20260905183051 | 16 | 70 | 1.6 | 6.4 | 0.00 | 0.15 | 0.15 | 88 | 1015.2 |
| 20260905181605 | 16 | 53 | 3.2 | 6.4 | 0.00 | 0.15 | 0.15 | 88 | 1014.9 |
| 20260905180045 | 17 | 84 | 4.8 | 12.9 | 0.00 | 0.15 | 0.15 | 87 | 1014.6 |
| 20260905174541 | 18 | 78 | 1.6 | 12.9 | 0.00 | 0.15 | 0.15 | 85 | 1014.2 |
| 20260905173038 | 18 | 75 | 4.8 | 12.9 | 0.00 | 0.15 | 0.15 | 84 | 1013.8 |
| 20260905171536 | 18 | 86 | 4.8 | 12.9 | 0.00 | 0.15 | 0.15 | 81 | 1013.7 |
| 20260905170034 | 19 | 141 | 3.2 | 12.9 | 0.00 | 0.15 | 0.15 | 81 | 1013.5 |
| 20260905164631 | 19 | 94 | 8.0 | 17.7 | 0.00 | 0.15 | 0.15 | 81 | 1013.2 |
| 20260905163032 | 19 | 71 | 4.8 | 17.7 | 0.00 | 0.15 | 0.15 | 80 | 1013.0 |
| 20260905161528 | 19 | 79 | 11.3 | 17.7 | 0.00 | 0.15 | 0.15 | 81 | 1013.0 |
| 20260905160026 | 19 | 67 | 8.0 | 17.7 | 0.00 | 0.15 | 0.15 | 83 | 1012.8 |
| 20260905154521 | 19 | 12 | 9.7 | 16.1 | 0.00 | 0.15 | 0.15 | 84 | 1012.7 |
| 20260905153019 | 19 | 84 | 6.4 | 12.9 | 0.00 | 0.15 | 0.15 | 83 | 1012.5 |
| 20260905151520 | 19 | 73 | 11.3 | 19.3 | 0.00 | 0.15 | 0.15 | 80 | 1012.5 |
| 20260905150015 | 20 | 96 | 9.7 | 25.7 | 0.00 | 0.15 | 0.15 | 79 | 1012.2 |
| 20260905144513 | 20 | 88 | 8.0 | 25.7 | 0.00 | 0.15 | 0.15 | 77 | 1012.0 |
| 20260905143020 | 20 | 60 | 12.9 | 25.7 | 0.03 | 0.15 | 0.15 | 75 | 1011.8 |
| 20260905141508 | 20 | 75 | 11.3 | 25.7 | 0.03 | 0.15 | 0.15 | 78 | 1012.1 |
| 20260905140007 | 19 | 94 | 14.5 | 22.5 | 0.03 | 0.15 | 0.15 | 82 | 1012.0 |
| 20260905134506 | 19 | 91 | 16.1 | 25.7 | 0.05 | 0.15 | 0.15 | 81 | 1012.1 |
| 20260905133004 | 20 | 82 | 12.9 | 20.9 | 0.15 | 0.15 | 0.15 | 82 | 1012.0 |
| 20260905131502 | 19 | 123 | 8.0 | 14.5 | 0.15 | 0.15 | 0.15 | 84 | 1012.1 |
| 20260905130001 | 18 | 61 | 6.4 | 9.7 | 0.15 | 0.15 | 0.15 | 85 | 1012.1 |
| 20260905124603 | 21 | 134 | 3.2 | 0.0 | 0.13 | 0.13 | 0.13 | 66 | 1012.3 |
| 20260905123057 | 21 | 78 | 9.7 | 0.0 | 0.00 | 0.00 | 0.00 | 63 | 1011.8 |
| 20260905121553 | 21 | 104 | 6.4 | 0.0 | 0.00 | 0.00 | 0.00 | 64 | 1011.8 |
| 20260905120053 | 21 | 80 | 8.0 | 0.0 | 0.00 | 0.00 | 0.00 | 62 | 1011.8 |
| 20260905114552 | 21 | 71 | 9.7 | 0.0 | 0.00 | 0.00 | 0.00 | 64 | 1011.7 |
| 20260905113049 | 21 | 75 | 8.0 | 0.0 | 0.00 | 0.00 | 0.00 | 64 | 1011.9 |
| 20260905111602 | 21 | 84 | 12.9 | 0.0 | 0.00 | 0.00 | 0.00 | 64 | 1011.8 |
| 20260905110051 | 21 | 87 | 11.3 | 0.0 | 0.00 | 0.00 | 0.00 | 64 | 1011.7 |
| 20260905104559 | 21 | 63 | 4.8 | 0.0 | 0.00 | 0.00 | 0.00 | 70 | 1011.6 |
| 20260905103045 | 21 | 193 | 4.8 | 0.0 | 0.00 | 0.00 | 0.00 | 74 | 1011.7 |
| 20260905101544 | 21 | 278 | 8.0 | 0.0 | 0.00 | 0.00 | 0.00 | 68 | 1011.6 |
| 20260905100042 | 21 | 288 | 8.0 | 0.0 | 0.00 | 0.00 | 0.00 | 68 | 1011.5 |